EW0408 Weather Reports


Display with metric or nautical units.
time (UTC)temp
F
wind
direction
speed
MPH
gust
MPH
rain 1hr
in
rain 24hr
in
rain mn
in
humidity
%
barometer
mb
20260503232004 73 53 9.0 14.0 0.00 0.76 0.72 77 1015.7
20260503231025 73 51 9.0 13.0 0.00 0.76 0.72 78 1015.7
20260503230004 73 49 9.0 12.0 0.00 0.76 0.72 77 1015.5
20260503225025 73 51 8.0 12.0 0.00 0.76 0.72 77 1015.6
20260503224004 73 49 8.0 12.0 0.00 0.77 0.72 77 1015.5
20260503223004 73 51 9.0 14.0 0.00 0.77 0.72 77 1015.5
20260503222003 74 52 9.0 15.0 0.00 0.83 0.72 77 1015.5
20260503221003 74 49 9.0 13.0 0.00 0.83 0.72 77 1015.5
20260503220005 74 50 9.0 14.0 0.00 0.83 0.72 76 1015.6
20260503215025 74 50 9.0 14.0 0.00 0.83 0.72 76 1015.6
20260503214004 74 53 8.0 11.0 0.00 0.83 0.72 78 1015.6
20260503213003 74 51 6.0 10.0 0.00 0.83 0.72 76 1015.4
20260503212003 74 53 8.0 13.0 0.00 0.83 0.72 76 1015.5
20260503211004 74 46 9.0 13.0 0.00 0.83 0.72 76 1015.6
20260503210004 74 47 9.0 15.0 0.00 0.83 0.72 77 1015.7
20260503205025 74 45 9.0 14.0 0.00 0.83 0.72 77 1015.6
20260503204025 73 48 10.0 15.0 0.00 0.83 0.72 77 1015.8
20260503203004 73 50 9.0 15.0 0.00 0.83 0.72 77 1015.7
20260503202003 74 48 10.0 14.0 0.00 0.83 0.72 77 1015.9
20260503201025 74 51 11.0 16.0 0.00 0.83 0.72 76 1016.0
20260503200025 73 49 9.0 16.0 0.00 0.83 0.72 77 1016.1
20260503195004 73 47 10.0 15.0 0.00 0.83 0.72 78 1016.2
20260503194004 72 47 10.0 14.0 0.00 0.83 0.72 78 1016.3
20260503193004 72 45 9.0 15.0 0.00 0.83 0.72 79 1016.4
20260503192004 72 46 9.0 13.0 0.00 0.83 0.72 79 1016.5
20260503191024 72 49 10.0 15.0 0.00 0.83 0.72 80 1016.7
20260503190004 72 44 8.0 14.0 0.00 0.83 0.72 79 1016.8
20260503185025 72 45 9.0 13.0 0.00 0.83 0.72 79 1016.9
20260503184003 71 47 9.0 12.0 0.00 0.83 0.72 80 1017.1
20260503183004 71 45 7.0 13.0 0.00 0.83 0.72 80 1017.4
20260503182025 71 41 7.0 12.0 0.00 0.83 0.72 80 1017.5
20260503181004 71 36 7.0 13.0 0.00 0.83 0.72 80 1017.6
20260503180005 71 42 7.0 12.0 0.00 0.83 0.72 81 1017.4
20260503175003 71 44 8.0 12.0 0.00 0.83 0.72 81 1017.5
20260503174004 71 45 8.0 14.0 0.00 0.83 0.72 81 1017.6
20260503173004 71 46 9.0 15.0 0.00 0.83 0.72 82 1017.5
20260503172003 71 43 8.0 13.0 0.00 0.83 0.72 83 1017.6
20260503171004 71 45 8.0 14.0 0.00 0.83 0.72 82 1017.6
20260503151004 68 29 4.0 8.0 0.00 0.83 0.72 88 1018.1
20260503131004 66 39 6.0 11.0 0.00 0.83 0.72 92 1016.8
20260503081005 70 9 2.0 5.0 0.25 0.42 0.31 92 1013.8
20260503072005 70 275 0.0 4.0 0.08 0.19 0.08 92 1013.8
20260503071005 70 0 0.0 0.0 0.06 0.17 0.06 91 1013.9
20260503055005 70 255 2.0 4.0 0.00 0.11 0.00 91 1014.0
20260503054005 70 255 1.0 6.0 0.00 0.11 0.00 91 1014.2
20260503053027 70 243 2.0 5.0 0.00 0.11 0.00 91 1014.4
20260503052026 70 237 1.0 4.0 0.00 0.11 0.00 92 1014.3
20260503051025 70 243 2.0 7.0 0.00 0.11 0.00 91 1014.5
20260503050005 70 261 2.0 8.0 0.00 0.11 0.00 91 1014.7
20260503045005 70 264 3.0 6.0 0.00 0.11 0.00 92 1014.6
20260503044025 70 269 4.0 8.0 0.00 0.11 0.00 92 1014.8
20260503043004 70 266 3.0 9.0 0.00 0.11 0.00 92 1014.8
20260503042025 69 217 1.0 6.0 0.00 0.11 0.00 92 1014.3
20260503041005 69 205 2.0 6.0 0.00 0.11 0.00 92 1014.2
20260503040005 70 197 1.0 4.0 0.00 0.11 0.00 92 1014.4
20260503035005 69 0 0.0 0.0 0.00 0.11 0.11 92 1014.1
20260503034005 69 0 0.0 0.0 0.00 0.11 0.11 92 1013.6
20260503033004 70 0 0.0 0.0 0.00 0.11 0.11 91 1013.1
20260503032005 70 0 0.0 0.0 0.00 0.11 0.11 91 1013.5
20260503031005 70 196 1.0 3.0 0.00 0.11 0.11 92 1013.3
20260503030005 70 194 1.0 5.0 0.03 0.11 0.11 92 1013.4
20260503025026 70 239 3.0 7.0 0.03 0.11 0.11 92 1013.7
20260503024005 70 255 3.0 8.0 0.03 0.11 0.11 92 1013.6
20260503023005 70 266 3.0 7.0 0.03 0.11 0.11 92 1013.5
20260503022004 70 244 3.0 6.0 0.03 0.11 0.11 92 1013.2
20260503021005 70 235 2.0 5.0 0.03 0.11 0.11 92 1012.7
20260503020004 70 234 3.0 9.0 0.01 0.08 0.08 92 1012.3
20260503015005 70 249 3.0 9.0 0.01 0.08 0.08 92 1012.5
20260503014005 71 244 3.0 7.0 0.01 0.08 0.08 92 1012.2
20260503013005 71 227 3.0 10.0 0.01 0.08 0.08 92 1011.6
20260503012005 71 239 3.0 7.0 0.01 0.08 0.08 92 1011.8
20260503011005 71 236 3.0 8.0 0.01 0.08 0.08 92 1011.5
20260503010004 71 238 4.0 9.0 0.00 0.07 0.07 92 1011.6
20260503005005 70 199 2.0 7.0 0.00 0.07 0.07 91 1010.9
20260503004005 70 201 2.0 4.0 0.00 0.07 0.07 91 1010.6
20260503003005 71 224 1.0 5.0 0.00 0.07 0.07 91 1011.1
20260503002004 71 206 1.0 6.0 0.00 0.07 0.07 91 1011.6
20260503001005 71 213 3.0 7.0 0.00 0.07 0.07 91 1011.7
20260503000025 71 216 3.0 7.0 0.00 0.07 0.07 91 1011.7
20260502235004 72 216 3.0 7.0 0.00 0.07 0.07 90 1011.8
20260502234004 72 221 1.0 4.0 0.01 0.07 0.07 90 1011.7
20260502233005 72 219 0.0 1.0 0.01 0.07 0.07 89 1011.6